Dewpoint
-0 1 1 1 2 2 3 2 1 2 2 1 -0 -1 -2 -2 -4 -3 -0 2 2 2 2 1 3 3 4 3 3 3 4 4 4 4 3 3 4 4 3 4 6 6 5 6 7 7 7 1 1 3 3 2 2 1
-0 -0 1 1 1 1 1 1 2 2 1 0 -1 -1 -1 -2 -3 -2 -0 1 1 2 2 -0 -0 2 2 1 5 4 3 4 4 3 3 3 3 4 3 4 3 5 4 4 4 4 1 -1 2 2 2 3 2 2
-1 -0 -0 1 1 1 1 0 0 1 1 -1 -2 -2 -2 -2 -3 -3 -2 -2 -2 0 -1 -2 -0 2 1 -0 0 4 4 4 5 5 4 4 4 3 3 4 2 2 1 5 4 3 2 -1 2 2 2 2 2 2
-3 -2 -0 -0 0 1 1 1 0 -0 -1 -2 -2 -2 -2 -2 -1 -1 -1 -0 -2 -2 -1 -2 -2 -3 -2 -3 -2 -1 2 3 4 5 5 2 3 2 3 3 3 2 2 4 4 2 2 2 1 2 3 2 3 2
-3 -4 -3 -1 0 0 1 1 -0 -1 -2 -1 -2 -2 -1 -0 -1 -1 -1 -2 -2 -6 -0 -1 -4 -4 -3 -1 -2 -2 -1 1 3 3 4 4 3 3 3 3 3 3 3 3 3 3 3 2 1 0 2 2 2 2
-5 -4 -4 -4 -3 -2 -1 0 0 0 -1 -2 -5 -6 -4 -3 -1 0 0 -0 -1 -1 -2 -1 -2 -2 -2 -1 -1 -0 2 1 2 3 3 3 3 3 2 2 2 0 0 -1 -1 -0 -1 -2 -2 -3 1 3 2 2
-5 -4 -4 -4 -4 -3 -2 -1 0 0 -0 -1 -4 -8 -8 -7 -2 -0 -3 -3 -2 -1 -4 -0 -0 -2 -3 0 1 -0 1 2 2 2 2 3 3 2 -0 2 -0 -1 -1 -1 -2 -1 -2 -2 -1 2 2 3 3 2
-8 -6 -3 -3 -4 -3 -2 -1 -1 -1 -0 -1 -2 -4 -3 -2 -1 -1 -2 -3 -4 -2 -4 -0 1 -1 -1 2 1 2 2 1 1 1 1 1 -0 1 1 1 -1 -1 -2 -3 -3 -2 -1 -2 -3 -0 1 2 2 2
-6 -8 -5 -3 -3 -3 -3 -2 -2 -1 -1 -0 -1 -2 -2 -0 -0 -1 -2 -2 -4 -5 -3 -1 1 -1 1 2 2 1 1 1 0 0 0 -0 -0 1 0 -3 -4 -4 -4 -4 -4 -4 -4 -4 -4 -4 -4 0 2 2
-4 -6 -5 -5 -4 -3 -3 -3 -2 -1 -1 -1 -1 -1 -1 -1 -2 -3 -3 -0 -0 -2 -1 -0 -1 1 0 1 1 1 1 1 2 0 -2 0 -1 -4 -5 -5 -5 -4 -3 -4 -4 -4 -4 -4 -4 -4 -5 -3 -0 1
-3 -4 -6 -6 -6 -5 -4 -4 -3 -2 -1 -1 -2 -1 -2 -3 -2 -5 -3 -1 -1 -1 -1 -1 -3 -0 0 1 1 0 1 1 2 -0 1 0 -0 -3 -6 -5 -7 -7 -5 -4 -3 -3 -3 -3 -3 -4 -4 -2 -0 1
-3 -3 -3 -4 -5 -6 -5 -5 -4 -1 -1 -2 -2 -2 -1 -2 -2 -1 -1 -1 -1 -1 0 -1 -3 -2 -0 -1 -0 -0 1 1 2 -1 -0 -0 -1 -5 -6 -6 -6 -6 -5 -5 -5 -5 -5 -5 -5 -4 -4 -3 0 1
-2 -2 -2 -2 -3 -4 -5 -6 -3 -2 -1 -2 -4 -2 -2 -2 -0 -0 -1 0 -1 -1 -1 -3 -1 -1 -0 -1 -1 0 1 -0 -2 -1 1 -0 -4 -6 -6 -6 -6 -6 -7 -5 -4 -3 -2 -3 -5 -4 -4 -2 1 0
-1 -1 -1 -2 -2 -2 -3 -5 -4 -2 -2 -2 -1 -1 -3 -1 -2 -2 -4 -4 -5 -2 -2 -3 -1 -1 -1 0 -0 1 -0 -1 -1 0 -0 -1 -6 -7 -8 -8 -8 -8 -7 -7 -5 -3 -3 -3 -4 -3 -3 -1 1 0
-1 -1 -1 -1 -2 -2 -3 -4 -4 -3 -3 -2 -2 -1 -2 -2 -3 -6 -5 -7 -5 -5 -2 -2 -1 -2 -1 -1 -1 -1 0 0 -0 -2 -3 -7 -7 -7 -7 -7 -7 -7 -5 -3 -4 -5 -5 -4 -2 -1 0 1 0 -0
-1 -1 -1 -1 -1 -1 -1 -2 -2 -2 -3 -1 -2 -3 -2 -3 -2 -4 -4 -4 -5 -3 -3 -2 -0 1 -0 -1 -0 -1 -0 -0 -2 -3 -8 -8 -7 -7 -8 -7 -6 -5 -3 -4 -9 -6 -2 -0 -1 0 1 0 -0 -1
-2 -0 -1 -1 -1 -1 -1 -1 -1 -2 -2 -2 -1 -4 -3 -4 -5 -6 -6 -3 -6 -3 -1 -1 1 1 -1 0 0 -2 -2 -4 -5 -8 -7 -6 -5 -4 -4 -3 -2 -2 -3 -5 -5 -1 -0 -0 -0 0 -0 -2 -2 -4
-1 -1 -1 -1 -1 -2 -1 -2 -1 -1 -1 -1 -1 -3 -5 -3 -4 -3 -5 -4 -5 -3 -2 -1 -2 0 -0 1 -1 -3 -6 -7 -7 -7 -8 -8 -7 -3 -2 -1 -1 -1 -3 -4 -2 -1 -1 -1 -1 -1 -2 -3 -5 -7
-1 -1 -1 -1 -1 -2 -2 -2 -1 -1 -0 -1 -3 -3 -3 -5 -4 -5 -5 -6 -5 -4 -3 -3 -2 -2 -3 -3 -3 -5 -5 -6 -6 -7 -7 -5 -1 -1 -1 -1 -1 -2 -4 -3 -1 -1 -2 -2 -2 -3 -4 -5 -6 -8
-1 -2 -1 -1 -1 -1 -1 -2 -1 -1 -0 -1 -1 -2 -4 -3 -4 -4 -3 -2 -4 -4 -1 -2 -3 -5 -6 -7 -7 -7 -8 -7 -7 -3 -2 -2 0 -0 0 -0 -1 -2 -3 -2 -2 -2 -3 -4 -5 -5 -5 -6 -6 -9
-0 -0 -1 -1 -1 -0 -1 -1 -0 -0 -0 -2 -3 -1 -1 -1 -3 -2 -3 -3 -3 -2 0 -2 -4 -4 -5 -5 -3 -3 -4 -3 -3 -3 -3 -2 -0 0 0 -1 -2 -3 -3 -2 -3 -4 -4 -5 -6 -7 -7 -7 -9 -14
-1 -1 -1 -1 -1 -1 -1 -0 -2 -1 -0 1 -0 -1 0 1 1 -1 -2 -2 -2 -2 -2 -2 -3 -4 -4 -4 -4 -4 -3 -3 -3 -2 -2 -1 0 -1 -4 -5 -4 -3 -2 -3 -3 -4 -5 -6 -9 -9 -10 -11 -16 -22
-1 -1 -1 -1 -1 -1 -1 -1 -1 -0 -0 0 -1 -0 -0 0 0 -0 0 -1 -2 -3 -3 -2 -2 -3 -2 -2 -2 -3 -3 -4 -6 -4 -1 -1 -2 -3 -4 -4 -4 -3 -3 -3 -4 -5 -6 -8 -10 -11 -12 -16 -16 -16
-1 -1 -0 -1 -1 -1 -0 0 0 -0 0 0 0 -0 0 0 1 1 1 -0 -2 -2 -1 -1 -1 -1 -0 -0 -1 -2 -3 -4 -3 -4 -4 -4 -4 -4 -4 -3 -4 -4 -4 -4 -5 -6 -8 -10 -11 -11 -12 -15 -14 -14
-2 -1 -1 -0 -1 -1 -0 0 0 0 -0 -0 -2 -0 -1 -1 -0 -0 -1 -2 -3 -3 -2 -1 -1 -1 -0 -1 -1 -1 -3 -5 -5 -6 -5 -4 -3 -3 -3 -3 -4 -4 -4 -5 -6 -7 -9 -11 -11 -10 -13 -14 -15 -15
-1 -2 -0 -1 -1 -1 -1 -0 -1 -0 -1 -1 -1 -1 -1 -1 -2 -2 -1 -4 -4 -2 -2 -2 -2 -2 -1 -0 -1 -1 -2 -3 -3 -3 -3 -2 -2 -2 -3 -3 -4 -4 -5 -5 -6 -8 -9 -9 -9 -12 -13 -14 -15 -16
-2 -2 -2 -2 -1 -1 -1 -1 -2 -2 -2 -2 -1 -1 -1 -1 -2 -2 -1 -0 1 -0 -1 -2 -2 -2 -1 0 0 0 -0 -1 -1 -1 -2 -2 -2 -2 -3 -3 -4 -4 -5 -5 -6 -7 -7 -6 -10 -13 -14 -16 -18 -19
-2 -2 -1 -1 -2 -2 -2 -2 -2 -2 -1 -2 -2 -3 -2 -3 -2 -2 -2 -2 -1 0 1 1 1 1 1 1 0 -0 -1 -1 -1 -1 -2 -2 -2 -3 -3 -3 -4 -5 -5 -5 -6 -7 -6 -8 -11 -13 -16 -19 -21 -21
-2 -3 -3 -4 -3 -2 -3 -2 -2 -2 -2 -2 -3 -2 -3 -4 -4 -4 -4 -4 -3 -3 -3 -2 -1 -0 -0 -0 -1 -1 -2 -2 -2 -2 -3 -3 -3 -4 -4 -4 -4 -5 -5 -6 -6 -7 -9 -10 -13 -18 -21 -23 -23 -22
-3 -4 -3 -3 -3 -2 -3 -3 -3 -3 -3 -3 -4 -5 -5 -6 -6 -5 -5 -5 -4 -4 -4 -4 -3 -3 -3 -3 -3 -3 -2 -3 -3 -4 -4 -4 -4 -4 -4 -4 -5 -5 -6 -7 -7 -9 -10 -14 -20 -20 -21 -22 -21 -20
-4 -4 -4 -4 -3 -3 -4 -5 -4 -4 -4 -4 -4 -4 -5 -6 -7 -6 -5 -5 -5 -5 -5 -5 -5 -5 -5 -4 -4 -4 -4 -4 -5 -5 -5 -5 -5 -5 -5 -5 -5 -6 -7 -8 -9 -14 -21 -24 -24 -24 -22 -22 -21 -21
-4 -5 -5 -5 -4 -5 -5 -4 -4 -4 -5 -4 -4 -5 -5 -4 -6 -7 -6 -5 -5 -5 -5 -5 -5 -5 -5 -6 -5 -6 -6 -5 -6 -6 -5 -4 -4 -5 -5 -5 -6 -7 -9 -13 -19 -22 -24 -25 -25 -24 -22 -21 -20 -20
-3 -5 -5 -5 -4 -4 -4 -4 -5 -4 -4 -4 -4 -4 -5 -5 -6 -7 -7 -6 -5 -5 -5 -5 -5 -5 -5 -5 -5 -6 -5 -6 -5 -5 -6 -5 -6 -6 -6 -7 -12 -19 -21 -23 -23 -23 -23 -23 -22 -21 -20 -20 -21 -22
Wind_Speed
16 33 29 35 37 35 42 46 44 44 43 41 40 38 36 33 33 36 31 12 7 3 6 10 11 15 9 9 1 9 7 2 3 3 4 4 4 5 5 5 8 6 6 4 3 2 10 17 8 8 7 14 11 11
17 22 31 32 34 40 37 38 39 41 38 37 36 35 34 33 33 31 26 20 14 6 2 7 7 4 6 9 7 6 6 8 10 3 2 2 2 2 4 2 5 4 7 6 9 7 12 9 4 13 19 19 11 9
23 20 24 32 33 34 32 32 34 37 37 34 32 33 34 32 31 30 21 18 14 9 12 15 2 6 2 3 6 6 6 5 2 8 5 4 3 4 3 5 5 5 17 5 4 8 12 19 8 9 10 8 10 12
28 26 25 25 33 32 31 31 32 32 32 32 31 31 31 30 30 28 26 17 14 7 3 6 4 8 15 13 9 4 8 5 10 6 2 2 2 2 2 4 3 6 6 6 4 9 11 12 13 9 10 13 20 16
31 30 31 31 31 32 33 34 34 31 31 30 30 29 28 28 26 26 22 22 15 10 4 7 13 16 9 8 9 5 7 8 8 3 2 1 2 3 3 1 2 3 3 3 5 6 5 6 5 9 9 13 16 17
34 33 33 34 34 34 34 33 32 32 31 29 27 28 28 27 25 26 12 23 22 16 5 2 6 7 5 9 7 5 7 7 9 4 3 3 2 0 1 3 6 14 14 11 7 14 16 19 21 22 17 14 17 16
35 35 35 34 35 35 36 36 35 32 31 29 27 26 27 29 31 28 5 7 25 18 6 2 6 5 11 8 5 6 8 4 4 4 4 4 4 2 2 4 6 11 12 15 24 20 18 19 16 13 17 14 18 17
38 38 36 36 35 36 35 36 35 34 32 29 26 26 27 27 26 30 6 7 22 19 8 1 2 4 7 6 5 8 5 4 4 3 2 2 3 6 4 10 19 22 23 31 37 34 28 25 24 20 20 23 23 22
38 38 38 37 36 36 36 35 34 35 33 32 32 30 25 25 20 30 8 9 21 9 12 6 2 3 9 4 4 5 5 1 2 3 5 5 3 7 7 13 16 15 24 30 30 28 28 26 25 22 22 22 26 24
41 39 38 38 38 38 37 36 35 35 31 30 33 17 7 18 13 20 20 10 10 10 6 5 7 3 9 5 3 4 4 2 2 5 7 4 10 24 26 23 23 23 28 26 31 31 29 24 23 26 29 25 29 30
40 40 39 38 39 40 39 38 37 36 36 29 10 4 22 28 19 13 7 7 7 4 10 12 26 6 10 3 2 6 2 2 2 4 6 4 5 11 25 32 40 49 45 40 35 34 34 34 36 36 30 25 28 30
40 41 40 40 39 40 40 40 41 44 25 23 17 21 26 11 6 6 5 5 5 6 11 12 16 12 11 8 4 6 3 2 5 4 3 4 2 10 18 30 27 26 27 29 30 32 31 31 32 32 30 28 31 32
40 41 41 41 41 41 41 42 44 45 33 26 12 8 8 8 6 6 8 6 4 7 16 19 9 15 8 8 4 3 4 4 3 0 4 4 8 14 22 21 19 20 19 17 18 23 22 24 24 23 28 29 34 31
42 43 42 44 45 42 42 42 46 43 38 7 7 8 6 5 5 4 9 8 13 14 27 33 21 8 7 5 4 5 5 3 3 4 5 2 12 25 26 24 21 24 24 25 26 22 24 28 26 23 28 32 34 32
33 39 44 48 47 46 47 45 48 45 18 7 6 5 7 9 10 24 30 27 16 23 27 23 9 7 3 3 4 4 5 5 6 4 5 20 23 26 26 24 26 27 27 20 18 21 24 20 20 25 30 33 32 29
33 30 34 41 52 51 49 49 49 36 15 6 8 4 8 10 5 20 19 22 25 29 29 18 4 3 4 4 5 8 5 6 4 4 14 17 18 20 23 26 30 22 18 16 16 16 16 13 20 29 32 32 30 26
38 26 38 36 41 56 58 48 31 13 15 7 6 23 14 18 23 23 33 22 31 27 9 5 7 8 4 3 5 5 5 8 14 19 19 16 16 19 17 18 17 15 13 14 17 14 13 16 19 27 29 29 28 25
34 34 40 37 34 45 45 29 13 10 7 8 7 18 25 14 24 22 28 22 31 27 21 5 9 5 5 5 4 4 20 26 25 25 29 30 24 20 16 17 16 13 14 16 16 15 15 18 23 27 27 28 27 24
40 41 36 43 46 20 9 15 10 5 4 10 16 16 23 32 24 28 30 34 31 35 25 13 4 5 8 6 8 19 26 27 30 29 30 23 20 19 20 19 16 13 15 18 19 18 16 17 22 25 26 25 26 27
45 44 41 50 46 10 6 6 10 4 5 9 10 19 24 23 29 29 30 32 34 29 11 9 12 10 10 24 22 22 25 22 26 22 18 20 21 19 19 19 17 14 15 17 18 16 15 16 21 22 23 25 27 28
40 47 56 52 28 7 6 8 7 7 10 6 17 17 8 16 22 25 28 30 23 13 4 10 18 23 21 24 15 12 25 24 17 16 16 20 22 18 18 17 14 16 19 20 21 17 16 19 22 21 21 22 23 23
42 66 44 26 6 4 5 5 13 11 5 3 15 13 6 3 6 11 22 15 16 19 25 28 22 22 25 26 25 21 15 13 16 18 18 18 17 15 16 16 16 19 22 22 20 19 18 20 22 20 19 21 20 20
54 37 22 8 4 4 5 14 5 6 3 3 7 3 2 3 9 15 9 14 19 31 33 31 34 30 25 19 19 21 20 17 17 16 16 15 14 14 15 16 16 20 23 22 20 18 20 23 23 21 20 22 21 21
38 9 5 4 4 3 8 4 6 6 5 4 4 4 4 3 5 2 3 7 19 21 24 25 26 22 21 21 23 22 19 17 18 17 16 16 17 18 16 15 17 19 20 19 22 21 25 26 26 23 23 25 25 23
8 4 6 4 5 6 4 4 4 3 3 4 5 3 4 6 3 3 3 5 20 24 24 27 31 30 29 28 25 21 18 20 21 21 19 18 17 15 16 17 18 19 21 23 26 25 30 29 27 25 25 26 26 25
4 4 5 4 4 4 4 4 5 5 3 3 3 7 8 3 3 5 4 13 16 20 27 31 34 34 34 33 29 28 28 25 23 24 22 22 22 22 22 22 23 23 23 23 25 29 31 31 29 27 25 24 24 23
4 3 4 5 9 10 4 4 6 4 3 5 4 3 3 5 5 4 6 9 12 16 24 32 31 32 33 29 27 25 21 21 24 23 21 19 20 20 21 23 24 23 22 23 24 26 28 29 29 26 24 21 21 21
2 4 4 2 6 4 4 3 4 4 4 9 9 6 9 8 5 3 5 10 12 12 14 18 23 22 20 19 18 19 18 20 21 20 20 20 21 20 19 18 17 16 19 20 21 23 23 24 24 22 21 20 19 18
2 6 8 5 5 3 2 2 3 3 2 13 5 4 3 3 4 6 6 6 8 9 10 13 15 18 20 18 18 18 19 21 19 19 23 24 22 19 17 15 16 17 15 16 17 17 18 18 17 17 17 16 15 15
2 6 5 2 3 2 2 2 2 4 5 5 6 6 5 3 3 5 2 3 6 6 6 6 6 10 13 16 19 20 20 19 20 20 21 23 21 18 20 19 18 17 16 17 19 20 19 17 16 17 18 17 16 15
8 5 4 3 2 3 5 4 4 5 4 5 8 7 7 5 3 3 3 4 5 5 5 7 9 11 13 15 17 18 19 18 18 17 15 13 14 17 21 19 18 18 18 18 19 19 20 19 18 18 17 15 13 11
6 6 4 3 3 8 13 5 4 3 3 3 4 4 5 5 2 1 2 4 4 5 5 6 8 9 10 9 8 9 9 12 18 16 13 8 11 16 19 19 18 16 16 17 18 18 18 17 17 15 13 13 12 10
7 11 10 6 4 5 4 4 2 2 2 2 3 3 2 3 3 2 5 6 7 6 7 7 6 7 8 7 9 8 10 13 14 12 9 11 13 18 19 17 15 14 16 16 16 16 16 15 13 12 12 10 10 9
Wind_Direction
181 178 186 181 187 179 187 185 184 181 182 184 185 187 190 193 195 201 206 210 181 196 8 43 42 33 360 20 174 152 121 160 108 155 142 206 183 226 214 195 162 158 157 177 156 206 255 242 276 195 169 140 141 154
186 177 172 183 178 182 173 173 174 177 179 182 184 188 192 193 195 201 211 221 221 209 278 344 37 31 42 27 350 360 171 159 173 135 191 192 205 223 185 225 160 175 176 180 179 206 238 255 162 155 167 165 158 159
193 184 169 173 176 172 164 163 169 172 172 176 185 192 192 194 196 200 196 208 216 236 281 279 251 191 222 330 4 28 53 19 70 351 187 205 211 157 194 229 221 219 195 188 134 244 244 244 189 178 198 203 211 201
186 186 184 175 171 171 175 179 184 187 188 187 187 190 192 195 195 197 196 199 201 151 172 259 288 279 266 275 281 264 325 296 357 335 256 201 176 247 226 220 165 210 182 209 243 263 297 188 215 249 246 236 206 205
192 188 186 187 181 179 180 184 181 179 181 182 184 186 187 191 189 195 202 216 216 189 162 306 290 277 258 263 263 247 245 284 313 324 335 256 288 22 327 55 250 216 218 156 215 209 215 234 266 308 245 220 220 219
196 194 190 187 186 187 188 188 187 189 188 187 189 190 190 192 190 185 199 214 202 197 129 356 305 297 265 238 249 217 197 219 216 197 183 235 230 55 210 233 204 238 259 289 281 278 282 283 286 286 265 230 227 222
195 194 192 189 188 187 188 189 190 188 186 185 186 184 186 188 191 177 180 191 202 190 140 345 285 255 238 229 221 217 217 187 172 173 206 203 194 205 199 209 269 274 280 273 256 281 286 279 278 277 249 229 216 219
196 194 192 191 189 187 188 189 188 189 191 182 177 178 184 184 189 190 142 186 184 176 142 264 264 302 194 180 186 174 171 184 216 188 216 211 245 217 247 213 238 247 255 253 253 259 273 276 286 282 260 222 209 208
195 193 192 191 188 188 187 186 186 186 191 187 177 175 176 181 186 198 153 179 178 167 159 181 206 239 177 150 138 140 163 134 232 220 205 186 218 223 204 213 227 231 235 246 262 271 278 276 277 273 265 237 225 207
193 193 191 192 192 190 187 184 183 182 183 180 166 164 167 176 168 178 181 183 208 208 184 179 192 198 185 156 120 131 152 145 228 236 198 210 243 243 247 254 261 260 256 262 260 266 271 273 276 273 262 260 236 222
192 192 192 192 191 190 188 186 184 178 175 171 164 117 134 151 141 167 163 179 180 202 192 204 200 148 178 152 139 158 158 162 229 248 178 247 259 238 257 256 256 256 256 260 263 267 272 275 275 271 272 270 232 216
193 191 192 193 190 188 188 187 182 176 172 163 134 129 140 157 174 154 177 172 199 202 192 195 178 165 159 161 135 178 169 188 246 201 158 255 192 213 236 247 256 264 268 271 269 266 268 270 271 268 264 245 224 215
194 193 194 193 192 190 186 183 180 180 172 147 146 158 176 159 178 194 158 151 192 214 178 161 163 161 148 176 152 160 197 220 226 223 231 227 169 235 244 253 255 269 277 284 283 262 255 263 274 261 253 231 212 205
196 194 194 194 192 189 187 181 180 180 173 172 158 153 202 159 209 188 178 181 206 184 163 166 160 149 160 165 169 163 211 159 246 234 224 219 227 242 251 259 270 272 276 277 277 266 262 271 269 257 240 219 207 207
178 186 195 197 192 189 187 181 178 176 167 173 206 196 189 188 216 201 201 196 193 181 163 156 135 134 136 181 180 183 173 228 218 201 228 232 244 245 253 257 272 275 269 252 273 273 272 271 255 228 212 207 209 207
176 176 186 184 192 189 179 178 176 177 185 191 218 188 210 179 209 209 198 202 197 172 161 154 125 159 193 177 176 202 204 207 223 226 253 261 266 269 270 270 269 264 253 257 274 274 269 257 225 207 200 203 202 208
180 179 184 175 179 188 176 164 175 185 176 200 208 212 197 198 200 202 212 202 192 173 163 135 165 189 145 190 198 205 205 228 224 245 259 290 290 286 260 260 249 264 256 252 261 254 236 221 215 202 195 191 200 202
182 180 183 173 169 177 173 182 179 158 170 180 185 206 209 222 201 207 206 195 193 193 178 185 160 185 173 189 224 231 241 246 253 256 264 273 277 271 257 250 250 263 247 248 248 236 223 208 200 198 199 198 198 198
182 182 180 175 171 140 137 184 183 156 149 161 195 198 203 216 214 207 201 201 204 198 193 198 217 197 210 210 196 225 233 234 242 248 255 266 251 249 256 254 256 259 244 241 236 231 230 224 217 208 205 206 203 198
184 186 179 175 174 155 136 140 154 136 169 177 196 205 213 212 208 212 215 204 206 210 199 203 217 220 205 230 238 245 251 262 258 252 256 247 243 247 245 254 259 253 234 228 228 227 226 215 217 217 214 210 205 201
164 171 174 170 160 143 142 141 135 172 129 171 187 182 195 192 198 208 215 212 214 181 233 234 216 236 246 250 265 259 256 248 259 260 259 249 241 246 253 252 242 228 226 225 226 225 226 217 213 213 209 208 206 206
156 162 147 150 107 127 107 127 140 120 125 234 159 164 156 156 179 196 236 222 220 218 221 222 227 241 241 236 240 245 254 252 257 261 254 250 235 240 245 237 226 218 224 229 232 230 220 206 212 211 207 206 201 201
145 146 141 130 103 80 101 127 99 143 143 167 121 98 117 186 183 166 191 209 221 224 227 225 224 230 239 239 240 236 242 247 244 241 238 238 243 246 239 236 233 225 223 226 232 225 210 203 210 210 202 201 200 197
141 114 101 107 91 94 143 144 124 117 127 156 156 147 153 175 159 155 232 209 223 222 220 218 215 216 221 228 233 238 233 233 230 226 228 232 235 237 240 244 239 235 237 235 221 212 203 204 209 207 206 203 205 206
106 131 123 129 149 127 144 145 146 142 153 175 152 131 150 166 173 217 234 214 218 222 220 216 214 219 219 227 230 229 227 228 229 233 238 241 245 237 232 236 236 236 231 220 211 207 201 204 208 209 209 212 213 212
89 187 189 150 151 127 150 132 149 169 133 131 143 122 160 166 171 240 219 202 211 214 211 211 212 218 225 231 231 232 235 240 243 246 249 244 242 240 239 233 228 222 226 227 219 208 204 204 209 210 211 215 217 216
136 180 199 183 147 127 93 105 144 112 144 160 141 145 131 179 227 244 186 169 180 185 211 219 222 224 230 226 230 238 242 246 240 240 243 237 241 247 245 244 242 241 229 221 221 215 213 209 209 211 214 218 219 215
131 194 137 65 97 94 109 106 134 168 187 161 150 167 174 199 218 185 183 201 188 182 186 196 204 210 216 224 233 238 231 215 212 218 227 230 230 234 236 239 234 229 223 218 216 217 213 213 215 216 217 217 215 215
136 124 96 45 57 53 93 147 177 125 118 174 167 170 140 140 159 180 210 228 197 210 213 212 214 221 229 232 230 231 234 234 217 225 228 223 221 221 222 218 214 211 208 206 202 204 208 212 216 218 217 214 214 218
135 114 88 92 150 154 92 24 112 132 69 99 116 110 106 118 170 168 168 165 164 176 194 198 202 205 215 220 223 224 227 233 236 236 233 228 229 216 205 206 205 202 197 195 194 192 195 196 195 197 202 206 207 209
133 114 104 100 98 105 146 156 155 158 144 82 87 109 125 141 123 125 162 155 162 179 187 202 217 222 227 230 233 237 241 232 221 219 220 228 219 205 200 197 191 189 190 187 188 189 188 189 194 198 201 204 209 218
160 182 144 119 112 146 144 155 152 133 142 120 118 108 136 144 121 265 161 171 163 189 206 224 223 221 222 221 223 220 232 211 194 193 186 189 181 181 180 182 185 186 184 183 185 187 190 195 195 195 199 205 213 219
107 93 104 106 130 162 155 135 109 93 91 89 90 116 101 106 117 176 148 163 170 183 180 185 191 186 180 178 173 160 149 148 152 165 169 166 168 171 176 180 180 177 178 177 176 182 187 189 192 195 201 207 210 215
Height
1321 1327 1335 1342 1352 1359 1367 1377 1386 1395 1409 1420 1429 1439 1447 1455 1463 1468 1475 1479 1481 1482 1483 1485 1488 1488 1487 1485 1489 1488 1496 1499 1506 1514 1519 1521 1518 1511 1507 1503 1514 1522 1534 1535 1538 1538 1531 1501 1503 1510 1507 1505 1507 1509
1323 1328 1335 1343 1351 1359 1367 1377 1387 1397 1408 1418 1428 1436 1445 1453 1461 1467 1473 1477 1480 1485 1485 1486 1490 1490 1492 1493 1493 1488 1489 1492 1496 1506 1507 1507 1511 1505 1504 1516 1501 1519 1513 1522 1521 1518 1500 1498 1497 1495 1498 1500 1504 1506
1326 1330 1335 1343 1351 1361 1369 1377 1388 1398 1407 1417 1426 1435 1443 1450 1458 1465 1473 1475 1480 1484 1486 1485 1489 1492 1492 1493 1493 1492 1492 1496 1493 1497 1497 1500 1504 1500 1510 1504 1496 1495 1497 1503 1505 1499 1496 1496 1499 1499 1498 1499 1501 1502
1326 1332 1339 1344 1352 1360 1371 1382 1391 1400 1409 1416 1424 1433 1441 1448 1457 1465 1469 1474 1478 1484 1487 1485 1485 1488 1490 1492 1494 1495 1496 1497 1495 1496 1496 1498 1503 1493 1496 1494 1495 1493 1492 1493 1495 1493 1493 1493 1495 1495 1496 1495 1497 1499
1324 1331 1339 1347 1354 1363 1373 1383 1392 1400 1408 1416 1425 1433 1441 1449 1456 1464 1470 1473 1477 1482 1483 1481 1480 1483 1487 1488 1492 1494 1497 1498 1497 1497 1496 1497 1494 1494 1491 1494 1495 1487 1489 1497 1499 1489 1490 1492 1493 1493 1493 1492 1493 1495
1322 1330 1339 1346 1354 1363 1372 1382 1391 1400 1408 1416 1425 1432 1440 1449 1456 1461 1468 1471 1475 1478 1481 1487 1484 1481 1482 1484 1488 1492 1494 1495 1496 1494 1495 1495 1494 1496 1500 1499 1483 1485 1484 1486 1485 1486 1487 1488 1489 1489 1488 1487 1489 1490
1319 1328 1336 1345 1353 1362 1372 1381 1390 1399 1408 1417 1425 1432 1440 1447 1453 1460 1466 1467 1472 1476 1480 1487 1483 1478 1480 1483 1487 1489 1490 1490 1490 1490 1491 1493 1493 1493 1493 1493 1482 1480 1481 1481 1479 1481 1482 1483 1484 1485 1484 1482 1483 1486
1317 1326 1334 1343 1353 1361 1371 1381 1389 1399 1407 1416 1424 1433 1440 1447 1454 1460 1463 1465 1467 1474 1481 1487 1481 1480 1478 1481 1484 1485 1486 1487 1487 1486 1488 1489 1490 1487 1484 1474 1476 1478 1478 1476 1474 1475 1476 1478 1478 1479 1479 1478 1478 1480
1314 1323 1332 1342 1352 1361 1369 1379 1389 1399 1406 1414 1422 1431 1439 1443 1447 1454 1464 1466 1468 1474 1475 1479 1477 1479 1478 1477 1480 1482 1484 1487 1486 1484 1484 1487 1484 1478 1467 1468 1469 1471 1470 1466 1468 1469 1470 1471 1471 1472 1473 1472 1473 1474
1310 1320 1330 1340 1349 1359 1368 1377 1388 1398 1406 1414 1420 1426 1428 1436 1446 1457 1465 1468 1468 1468 1469 1469 1472 1475 1477 1476 1479 1483 1482 1484 1485 1480 1479 1476 1462 1459 1460 1463 1464 1464 1462 1463 1463 1462 1463 1463 1465 1466 1466 1464 1465 1467
1307 1317 1327 1337 1347 1356 1366 1375 1386 1398 1405 1410 1413 1418 1426 1437 1447 1453 1459 1462 1463 1462 1461 1459 1462 1468 1473 1475 1476 1478 1480 1481 1481 1476 1475 1467 1451 1447 1452 1453 1449 1449 1452 1454 1455 1456 1456 1457 1457 1458 1459 1457 1457 1460
1304 1314 1324 1334 1344 1353 1363 1374 1385 1393 1397 1405 1413 1421 1430 1436 1441 1444 1449 1453 1453 1451 1447 1449 1454 1460 1466 1470 1473 1475 1476 1477 1474 1465 1468 1457 1441 1443 1444 1439 1443 1444 1445 1445 1446 1446 1446 1447 1447 1447 1448 1448 1450 1454
1302 1311 1321 1331 1341 1352 1362 1371 1382 1390 1398 1407 1413 1419 1421 1424 1425 1429 1432 1437 1441 1431 1429 1438 1450 1455 1461 1465 1467 1470 1472 1472 1462 1467 1456 1444 1435 1436 1436 1438 1439 1439 1440 1439 1439 1439 1439 1439 1439 1438 1438 1439 1442 1447
1298 1307 1317 1327 1338 1348 1359 1369 1380 1388 1399 1402 1405 1411 1414 1413 1413 1412 1415 1415 1416 1417 1421 1430 1440 1447 1453 1458 1460 1463 1462 1460 1465 1454 1441 1437 1435 1431 1432 1433 1434 1433 1433 1433 1432 1432 1431 1430 1429 1429 1430 1432 1436 1441
1293 1302 1311 1322 1333 1344 1356 1368 1378 1388 1394 1399 1400 1394 1398 1393 1397 1399 1402 1407 1412 1416 1421 1427 1434 1440 1446 1451 1449 1450 1454 1451 1441 1438 1432 1423 1425 1426 1427 1428 1428 1427 1427 1427 1427 1425 1422 1421 1421 1423 1426 1428 1432 1437
1296 1304 1309 1317 1327 1339 1353 1367 1379 1386 1388 1391 1390 1387 1386 1392 1394 1397 1399 1403 1408 1410 1418 1425 1430 1437 1438 1438 1441 1441 1437 1432 1429 1421 1419 1420 1421 1421 1422 1422 1422 1422 1421 1421 1421 1419 1419 1419 1420 1420 1422 1427 1431 1435
1294 1297 1305 1316 1326 1334 1347 1362 1370 1375 1378 1380 1378 1379 1380 1382 1383 1387 1394 1397 1403 1407 1412 1418 1425 1425 1426 1431 1430 1425 1425 1415 1415 1415 1414 1416 1417 1417 1418 1417 1417 1417 1417 1417 1415 1416 1417 1417 1419 1421 1423 1426 1431 1434
1288 1296 1305 1316 1326 1335 1343 1354 1355 1361 1365 1367 1370 1370 1376 1379 1382 1385 1388 1393 1398 1400 1404 1406 1408 1416 1421 1419 1416 1411 1411 1411 1411 1411 1411 1412 1413 1412 1412 1412 1412 1413 1414 1413 1413 1414 1415 1416 1418 1419 1422 1424 1428 1432
1284 1294 1305 1316 1323 1330 1340 1347 1350 1351 1354 1358 1363 1366 1370 1373 1376 1379 1383 1386 1389 1394 1399 1402 1404 1405 1403 1397 1399 1403 1404 1405 1404 1404 1405 1407 1407 1407 1408 1408 1409 1410 1409 1409 1410 1412 1414 1415 1415 1418 1420 1423 1426 1429
1285 1296 1306 1315 1325 1333 1337 1341 1346 1347 1349 1351 1357 1362 1366 1367 1371 1375 1378 1381 1384 1388 1392 1391 1385 1386 1390 1393 1396 1398 1399 1399 1399 1399 1401 1401 1402 1402 1403 1403 1405 1406 1406 1407 1408 1410 1411 1413 1413 1415 1418 1421 1424 1427
1282 1292 1303 1316 1324 1329 1331 1334 1341 1345 1344 1349 1354 1358 1362 1363 1365 1368 1371 1376 1379 1378 1385 1379 1381 1386 1389 1391 1392 1392 1392 1395 1395 1395 1396 1396 1396 1398 1399 1399 1401 1402 1401 1402 1404 1406 1407 1409 1410 1414 1416 1419 1423 1427
1280 1291 1301 1311 1317 1322 1326 1329 1332 1338 1345 1348 1350 1354 1358 1360 1362 1363 1370 1372 1371 1370 1371 1373 1376 1382 1384 1384 1386 1387 1388 1389 1390 1390 1390 1390 1391 1393 1393 1395 1396 1397 1398 1399 1401 1402 1404 1407 1409 1413 1416 1418 1422 1426
1285 1294 1303 1310 1316 1321 1328 1331 1335 1340 1345 1346 1348 1352 1356 1359 1359 1361 1362 1362 1362 1362 1364 1367 1371 1376 1378 1379 1379 1381 1383 1384 1385 1385 1386 1387 1388 1389 1389 1391 1392 1394 1395 1397 1399 1401 1404 1406 1409 1412 1415 1418 1421 1424
1289 1295 1302 1309 1315 1323 1328 1331 1334 1339 1343 1345 1348 1350 1355 1356 1357 1357 1356 1352 1352 1357 1360 1362 1366 1369 1371 1372 1373 1375 1377 1379 1381 1381 1382 1383 1383 1384 1386 1388 1389 1390 1392 1394 1396 1399 1402 1404 1406 1410 1413 1416 1419 1423
1296 1306 1308 1311 1315 1321 1325 1328 1331 1334 1338 1339 1342 1348 1351 1354 1356 1356 1350 1344 1347 1349 1352 1356 1359 1360 1361 1363 1366 1368 1371 1373 1374 1375 1377 1378 1379 1381 1383 1385 1386 1387 1388 1390 1392 1395 1398 1401 1404 1408 1411 1414 1417 1421
1296 1301 1303 1304 1309 1311 1318 1322 1326 1328 1331 1336 1338 1341 1347 1349 1352 1347 1338 1337 1340 1342 1345 1347 1350 1352 1354 1355 1359 1361 1363 1367 1369 1369 1371 1373 1374 1376 1378 1379 1380 1382 1384 1386 1389 1391 1395 1398 1402 1406 1409 1412 1415 1419
1297 1299 1298 1298 1300 1304 1312 1315 1319 1323 1330 1332 1335 1339 1342 1344 1343 1334 1331 1331 1333 1334 1336 1340 1343 1345 1347 1351 1353 1354 1357 1360 1362 1365 1367 1368 1370 1372 1374 1374 1375 1378 1380 1382 1385 1388 1392 1395 1400 1404 1407 1410 1413 1416
1294 1296 1297 1298 1300 1303 1308 1314 1319 1323 1322 1322 1327 1333 1334 1334 1330 1330 1329 1330 1331 1333 1333 1335 1338 1341 1343 1346 1348 1350 1352 1355 1357 1360 1362 1364 1365 1367 1369 1370 1372 1374 1376 1379 1383 1386 1390 1394 1398 1402 1405 1408 1411 1414
1295 1296 1297 1302 1304 1306 1309 1311 1312 1312 1315 1316 1319 1322 1325 1326 1327 1327 1328 1328 1329 1330 1332 1334 1336 1339 1341 1343 1346 1348 1350 1351 1353 1355 1356 1358 1360 1362 1364 1366 1368 1371 1375 1378 1382 1386 1390 1394 1397 1400 1404 1407 1410 1413
1296 1296 1301 1304 1307 1308 1310 1311 1311 1313 1314 1315 1316 1320 1323 1325 1326 1327 1327 1328 1329 1330 1332 1333 1334 1336 1338 1340 1342 1344 1345 1347 1348 1351 1352 1353 1355 1359 1361 1363 1367 1370 1373 1377 1380 1384 1388 1392 1395 1399 1402 1405 1407 1409
1295 1298 1301 1304 1308 1310 1310 1312 1313 1314 1316 1317 1317 1319 1322 1325 1326 1327 1327 1327 1328 1329 1330 1332 1333 1335 1336 1337 1339 1340 1341 1343 1345 1347 1349 1351 1353 1356 1359 1363 1366 1369 1372 1376 1379 1382 1386 1390 1394 1397 1400 1402 1405 1407
1297 1297 1299 1304 1309 1311 1312 1313 1314 1315 1316 1317 1319 1321 1323 1324 1327 1327 1326 1326 1327 1328 1329 1330 1331 1332 1333 1334 1335 1336 1337 1339 1342 1345 1348 1349 1352 1355 1359 1363 1366 1369 1372 1375 1379 1382 1386 1389 1392 1395 1398 1400 1403 1405
1295 1296 1297 1302 1307 1308 1310 1312 1313 1314 1315 1317 1318 1320 1321 1322 1325 1327 1326 1327 1327 1328 1328 1329 1330 1331 1332 1333 1335 1336 1338 1340 1343 1346 1348 1350 1353 1356 1360 1363 1366 1369 1373 1376 1379 1383 1386 1389 1392 1395 1397 1399 1401 1402